Tracking 17155 objects as of 28-July-2015
HD Live streaming from Space Station

SL-16 DEB

Track SL-16 DEB now!
10-day predictions
SL-16 DEB is classified as:


NORAD ID: 19658
Int'l Code: 1988-102E
Perigee: 844.2 km
Apogee: 1,138.9 km
Inclination: 71.0 °
Period: 104.8 minutes
Semi major axis: 7362 km
RCS: 0.0923 m2 (small)
Launch date: November 23, 1988
Source: Commonwealth of Independent States (former USSR) (CIS)

Note: This is SATELLITE DEBRIS
Your satellite tracking list
Your tracking list is empty





NASA's NSSDC Master Catalog

Two Line Element Set (TLE):
1 19658U 88102E   15208.08369598  .00000020  00000-0  58354-4 0  9993
2 19658 071.0247 349.8667 0200130 281.2491 194.3769 13.74233137337217

Source of the keplerian elements: AFSPC

N2YO: 230